FW0515 Weather Reports


Display with metric or nautical units.
time (UTC)temp
F
wind
direction
speed
MPH
gust
MPH
rain 1hr
in
rain 24hr
in
rain mn
in
humidity
%
barometer
mb
20260506230016 67 359 0.0 0.0 0.00 0.08 0.08 84 1006.8
20260506224514 67 359 0.0 0.0 0.00 0.08 0.08 84 1006.9
20260506223014 68 325 0.0 0.0 0.00 0.08 0.08 83 1006.9
20260506221513 68 325 0.0 0.0 0.00 0.08 0.08 83 1006.8
20260506220013 68 295 0.0 0.0 0.00 0.08 0.08 83 1006.6
20260506214512 68 321 0.0 0.0 0.00 0.08 0.08 83 1006.6
20260506213015 68 4 0.0 0.0 0.00 0.08 0.08 82 1006.5
20260506211512 68 227 0.0 1.0 0.00 0.08 0.08 84 1006.5
20260506210014 68 207 0.0 0.0 0.00 0.08 0.08 84 1006.5
20260506204511 68 233 0.0 0.0 0.00 0.08 0.08 84 1006.4
20260506203010 68 233 0.0 0.0 0.00 0.08 0.08 84 1006.5
20260506201510 68 238 0.0 0.0 0.00 0.08 0.08 83 1006.3
20260506200009 66 137 0.0 0.0 0.00 0.08 0.08 86 1006.2
20260506194511 64 316 0.0 0.0 0.00 0.08 0.08 89 1006.6
20260506193005 63 316 0.0 0.0 0.00 0.08 0.08 91 1006.7
20260506191505 63 267 0.0 0.0 0.00 0.08 0.08 92 1006.9
20260506190004 63 246 0.0 0.0 0.00 0.08 0.08 91 1007.1
20260506184502 63 294 0.0 0.0 0.00 0.08 0.08 92 1007.0
20260506183106 62 359 0.0 0.0 0.00 0.08 0.08 93 1007.2
20260506181600 62 359 0.0 0.0 0.00 0.08 0.08 93 1007.3
20260506180106 62 359 0.0 1.0 0.00 0.08 0.08 93 1007.3
20260506174558 61 359 0.0 0.0 0.00 0.08 0.08 94 1007.5
20260506173122 61 359 0.0 1.0 0.00 0.08 0.08 93 1007.5
20260506171602 61 359 0.0 0.0 0.00 0.08 0.08 93 1007.6
20260506170054 61 359 0.0 0.0 0.03 0.08 0.08 93 1007.7
20260506164554 62 359 0.0 0.0 0.04 0.08 0.08 93 1007.9
20260506163058 62 359 0.0 0.0 0.06 0.08 0.08 94 1007.9
20260506161556 62 359 0.0 0.0 0.06 0.08 0.08 94 1007.9
20260506160104 61 359 0.0 0.0 0.05 0.05 0.05 92 1008.3
20260506154547 61 359 0.0 1.0 0.04 0.04 0.04 91 1009.0
20260506153048 62 359 0.0 0.0 0.02 0.02 0.02 90 1009.0
20260506151545 62 359 0.0 1.0 0.02 0.02 0.02 88 1008.9
20260506150043 63 359 0.0 0.0 0.00 0.00 0.00 85 1008.6
20260506144541 64 359 0.0 0.0 0.00 0.00 0.00 82 1008.6
20260506143041 65 359 0.0 0.0 0.00 0.00 0.00 81 1008.8
20260506141541 66 359 0.0 0.0 0.00 0.00 0.00 78 1008.9
20260506140045 67 307 0.0 0.0 0.00 0.00 0.00 73 1008.7
20260506134608 69 293 0.0 0.0 0.00 0.00 0.00 72 1008.5
20260506133038 66 310 0.0 1.0 0.00 0.00 0.00 75 1008.5
20260506131550 66 359 0.0 0.0 0.00 0.00 0.00 77 1008.7
20260506130037 66 359 0.0 0.0 0.00 0.00 0.00 76 1008.7
20260506124536 66 359 0.0 0.0 0.00 0.00 0.00 75 1009.0
20260506123043 67 341 0.0 1.0 0.00 0.00 0.00 74 1008.9
20260506121536 66 283 0.0 1.0 0.00 0.00 0.00 77 1008.8
20260506120031 66 331 0.0 0.0 0.00 0.00 0.00 78 1008.5
20260506114537 65 340 0.0 1.0 0.00 0.00 0.00 79 1008.7
20260506113034 64 104 0.0 0.0 0.00 0.00 0.00 80 1008.5
20260506111530 64 325 0.0 1.0 0.00 0.00 0.00 80 1008.5
20260506110030 64 359 0.0 0.0 0.00 0.00 0.00 80 1008.5
20260506104528 63 359 0.0 1.0 0.00 0.00 0.00 81 1008.5
20260506103032 63 359 0.0 0.0 0.00 0.00 0.00 82 1008.4
20260506101528 63 359 0.0 1.0 0.00 0.00 0.00 82 1008.4
20260506100033 63 359 0.0 0.0 0.00 0.00 0.00 82 1008.3
20260506094526 62 359 0.0 0.0 0.00 0.00 0.00 82 1008.4
20260506093027 63 359 0.0 0.0 0.00 0.00 0.00 81 1008.6
20260506091526 63 359 0.0 1.0 0.00 0.00 0.00 81 1008.5
20260506090024 64 359 0.0 0.0 0.00 0.00 0.00 80 1008.5
20260506084527 64 359 0.0 0.0 0.00 0.00 0.00 80 1008.6
20260506083023 64 359 0.0 1.0 0.00 0.00 0.00 80 1008.5
20260506081528 64 359 0.0 0.0 0.00 0.00 0.00 81 1008.6
20260506073020 64 359 0.0 0.0 0.00 0.02 0.00 80 1008.8
20260506071519 65 359 0.0 1.0 0.00 0.02 0.00 79 1008.8
20260506061515 65 359 0.0 9.0 0.00 0.02 0.00 79 1009.2
20260506044504 63 359 0.0 0.0 0.00 0.02 0.00 78 1009.8
20260506043006 63 359 0.0 0.0 0.00 0.02 0.00 77 1009.9
20260506041504 63 359 0.0 0.0 0.00 0.02 0.00 77 1009.8
20260506040100 64 359 0.0 0.0 0.00 0.02 0.00 75 1009.9
20260506034601 64 339 0.0 0.0 0.00 0.02 0.02 75 1009.8
20260506033057 65 21 0.0 0.0 0.00 0.02 0.02 74 1009.6
20260506031600 65 18 0.0 0.0 0.00 0.02 0.02 72 1009.5
20260506030058 66 68 0.0 0.0 0.00 0.02 0.02 70 1009.7
20260506024604 67 11 0.0 0.0 0.00 0.02 0.02 68 1009.7
20260506023055 68 359 0.0 0.0 0.00 0.02 0.02 67 1009.9
20260506021555 69 359 0.0 0.0 0.00 0.02 0.02 64 1009.8
20260506020107 69 359 0.0 0.0 0.00 0.02 0.02 63 1009.6
20260506014610 70 359 0.0 0.0 0.00 0.02 0.02 60 1009.4
20260506013055 70 359 0.0 0.0 0.00 0.02 0.02 59 1009.3
20260506011619 71 359 0.0 0.0 0.00 0.02 0.02 58 1009.1
20260506010053 71 359 0.0 0.0 0.00 0.02 0.02 56 1009.0
20260506004603 72 52 0.0 0.0 0.00 0.02 0.02 56 1008.8
20260506003052 73 340 0.0 0.0 0.00 0.02 0.02 53 1008.8
20260506001553 74 103 0.0 0.0 0.00 0.02 0.02 53 1008.6
20260506000116 74 245 0.0 0.0 0.00 0.02 0.02 52 1008.3
20260505234554 75 350 0.0 0.0 0.00 0.02 0.02 50 1008.2
20260505233055 76 346 0.0 0.0 0.00 0.02 0.02 51 1008.3
20260505231557 76 304 0.0 0.0 0.00 0.02 0.02 49 1008.1